Date String (YYYY-MM-DD hh:mm:ss) UTC,Instrument flags,absolute air pressure of the measurement (hPa),sample flow rate (lpm),inlet stack bypass flow (lpm),air temperature of the measurement (°C),ambient temperature measured by the external sensor (°C),aerosol sample conditioner tube jacket temperature (°C),OPC LED temperature (°C),internal box temperature (°C),relative humidity of the measurement (%),span deviation,mass concentration of particles derived from Lorenz-Mie calculation of OPC scattering (μg/m³),mass concentration of particles derived from Lorenz-Mie calculation of OPC scattering (μg/m³),mass concentration of particles derived from Lorenz-Mie calculation of OPC scattering (μg/m³)
DateTimeUTC,F1_M11,P_M11,Q1_M11,Q2_M11,T1_M11,T2_M11,T3_M11,T4_M11,T5_M11,U1_M11,ZSPAN_M11,X0_M11,X2_M11,X1_M11
2023-08-15 16:00:00,SystemResetWarning,0838.7,4.99,000.00,029.2,027.7,000.0,037.7,030.9,24.8,0001.4,0014.32,0005.88,0005.09
2023-08-15 16:01:00,SystemResetWarning,0838.8,5.00,000.00,029.3,027.8,000.0,037.7,031.0,24.5,0001.4,0013.72,0005.83,0005.09
2023-08-15 16:02:00,SystemResetWarning,0838.7,5.00,000.00,029.3,028.0,000.0,037.7,031.0,24.5,0001.4,0013.69,0005.85,0005.09
2023-08-15 16:03:00,SystemResetWarning,0838.7,5.00,000.00,029.3,027.7,000.0,037.7,031.0,24.5,0001.5,0013.57,0005.90,0005.09
2023-08-15 16:04:00,SystemResetWarning,0838.7,5.01,000.00,029.3,026.1,000.0,037.6,030.7,24.8,0001.5,0013.62,0005.95,0005.08
2023-08-15 16:05:00,SystemResetWarning,0838.6,5.00,000.00,029.2,025.1,000.0,037.5,030.5,25.0,0001.8,0014.61,0005.95,0005.06
2023-08-15 16:06:00,SystemResetWarning,0838.6,5.01,000.00,029.1,025.4,000.0,037.4,030.4,25.2,0001.8,0014.74,0005.97,0005.06
2023-08-15 16:07:00,SystemResetWarning,0838.7,5.01,000.00,029.1,025.7,000.0,037.5,030.4,24.9,0002.3,0015.56,0005.98,0005.06
2023-08-15 16:08:00,SystemResetWarning,0838.7,5.00,000.00,029.0,026.1,000.0,037.5,030.5,25.3,0002.0,0015.82,0005.98,0005.06
2023-08-15 16:09:00,SystemResetWarning,0838.7,4.99,000.00,029.0,026.4,000.0,037.5,030.6,25.3,0001.3,0016.08,0005.98,0005.08
2023-08-15 16:10:00,SystemResetWarning,0838.7,5.00,000.00,029.1,026.8,000.0,037.6,030.6,25.0,0001.1,0015.96,0005.98,0005.10
2023-08-15 16:11:00,SystemResetWarning,0838.7,5.01,000.00,029.1,027.1,000.0,037.6,030.7,25.2,0001.4,0015.50,0006.03,0005.11
2023-08-15 16:12:00,SystemResetWarning,0838.7,5.01,000.00,029.1,027.3,000.0,037.6,030.8,24.9,0000.9,0015.70,0006.08,0005.13
2023-08-15 16:13:00,SystemResetWarning,0838.7,5.00,000.00,029.1,027.5,000.0,037.6,030.8,24.7,0001.0,0015.60,0006.08,0005.14
2023-08-15 16:14:00,SystemResetWarning,0838.7,5.00,000.00,029.2,027.7,000.0,037.6,030.9,24.8,0001.1,0015.26,0006.08,0005.14
2023-08-15 16:15:00,SystemResetWarning,0838.7,5.00,000.00,029.2,027.9,000.0,037.6,030.9,24.7,0001.1,0016.29,0006.03,0005.15
2023-08-15 16:16:00,SystemResetWarning,0838.7,5.00,000.00,029.3,027.9,000.0,037.6,031.0,24.4,0001.0,0016.04,0006.02,0005.16
2023-08-15 16:17:00,SystemResetWarning,0838.7,4.99,000.00,029.3,026.7,000.0,037.5,030.8,24.6,0001.2,0015.82,0006.00,0005.15
2023-08-15 16:18:00,SystemResetWarning,0838.7,5.00,000.00,029.2,025.3,000.0,037.4,030.4,24.5,0001.0,0015.11,0006.01,0005.15
2023-08-15 16:19:00,SystemResetWarning,0838.7,5.01,000.00,029.1,025.2,000.0,037.3,030.4,24.4,0000.8,0015.16,0006.01,0005.14
2023-08-15 16:20:00,SystemResetWarning,0838.6,5.01,000.00,029.0,025.6,000.0,037.4,030.3,24.7,0000.9,0014.96,0006.01,0005.11
2023-08-15 16:21:00,SystemResetWarning,0838.7,5.00,000.00,029.0,026.0,000.0,037.4,030.4,25.1,0000.9,0015.70,0006.04,0005.10
2023-08-15 16:22:00,SystemResetWarning,0838.6,5.00,000.00,029.0,026.3,000.0,037.5,030.5,24.7,0001.4,0015.74,0006.03,0005.09
2023-08-15 16:23:00,SystemResetWarning,0838.7,5.00,000.00,029.0,026.7,000.0,037.5,030.6,24.1,0001.9,0015.35,0006.04,0005.08
2023-08-15 16:24:00,SystemResetWarning,0838.6,5.00,000.00,029.0,027.0,000.0,037.5,030.7,24.2,0002.0,0015.73,0006.08,0005.07
2023-08-15 16:25:00,SystemResetWarning,0838.6,4.99,000.00,029.1,027.2,000.0,037.5,030.7,24.8,0002.1,0015.76,0006.09,0005.06
2023-08-15 16:26:00,SystemResetWarning,0838.6,5.00,000.00,029.1,027.5,000.0,037.5,030.8,24.7,0002.7,0016.28,0006.16,0005.06
2023-08-15 16:27:00,SystemResetWarning,0838.6,5.00,000.00,029.1,027.7,000.0,037.6,030.9,24.3,0002.9,0015.81,0006.25,0005.06
2023-08-15 16:28:00,SystemResetWarning,0838.6,5.01,000.00,029.2,027.8,000.0,037.6,030.9,23.9,0002.7,0016.26,0006.25,0005.06
2023-08-15 16:29:00,SystemResetWarning,0838.6,4.99,000.00,029.2,027.7,000.0,037.6,030.9,23.9,0002.6,0016.01,0006.28,0005.07
2023-08-15 16:30:00,SystemResetWarning,0838.6,4.99,000.00,029.2,026.2,000.0,037.4,030.6,23.8,0002.7,0016.10,0006.32,0005.08
2023-08-15 16:31:00,SystemResetWarning,0838.6,5.01,000.00,029.1,025.1,000.0,037.3,030.4,23.9,0000.0,0016.18,0006.33,0005.10
2023-08-15 16:32:00,SystemResetWarning,0838.6,5.01,000.00,029.0,025.3,000.0,037.3,030.3,24.4,0000.0,0016.29,0006.32,0005.10
2023-08-15 16:33:00,SystemResetWarning,0838.6,5.01,000.00,029.0,025.6,000.0,037.3,030.3,25.1,0000.0,0016.61,0006.31,0005.11
2023-08-15 16:34:00,SystemResetWarning,0838.6,5.00,000.00,028.9,026.0,000.0,037.4,030.4,25.4,0000.0,0017.03,0006.31,0005.12
2023-08-15 16:35:00,SystemResetWarning,0838.5,4.99,000.00,028.9,026.4,000.0,037.4,030.5,24.8,0000.0,0016.82,0006.30,0005.12
2023-08-15 16:36:00,SystemResetWarning,0838.5,5.01,000.00,029.0,026.7,000.0,037.4,030.6,25.1,0000.0,0016.66,0006.32,0005.13
2023-08-15 16:37:00,SystemResetWarning,0838.5,5.00,000.00,029.0,027.0,000.0,037.5,030.7,24.7,0000.0,0014.90,0006.25,0005.14
2023-08-15 16:38:00,SystemResetWarning,0838.4,4.99,000.00,029.0,027.3,000.0,037.5,030.7,24.6,0000.0,0014.63,0006.24,0005.15
2023-08-15 16:39:00,SystemResetWarning,0838.5,4.99,000.00,029.1,027.5,000.0,037.5,030.8,24.6,0000.4,0014.11,0006.24,0005.16
2023-08-15 16:40:00,SystemResetWarning,0838.4,5.00,000.00,029.1,027.7,000.0,037.5,030.8,24.4,0001.2,0014.32,0006.30,0005.17
2023-08-15 16:41:00,SystemResetWarning,0838.4,5.01,000.00,029.1,027.9,000.0,037.5,030.9,24.1,0001.4,0014.26,0006.28,0005.18
2023-08-15 16:42:00,SystemResetWarning,0838.4,5.00,000.00,029.2,027.6,000.0,037.5,030.9,24.6,0001.5,0014.23,0006.29,0005.19
2023-08-15 16:43:00,SystemResetWarning,0838.4,5.00,000.00,029.1,025.9,000.0,037.4,030.5,24.4,0001.4,0013.84,0006.34,0005.19
2023-08-15 16:44:00,SystemResetWarning,0838.4,5.01,000.00,029.0,025.1,000.0,037.3,030.3,24.3,0000.9,0013.75,0006.33,0005.19
2023-08-15 16:45:00,SystemResetWarning,0838.4,5.01,000.00,029.0,025.4,000.0,037.3,030.2,24.2,0000.4,0013.40,0006.33,0005.21
2023-08-15 16:46:00,SystemResetWarning,0838.4,4.99,000.00,028.9,025.7,000.0,037.3,030.3,24.3,0000.2,0013.09,0006.29,0005.22
2023-08-15 16:47:00,SystemResetWarning,0838.4,5.00,000.00,028.9,026.1,000.0,037.4,030.4,24.4,0000.5,0013.21,0006.28,0005.23
2023-08-15 16:48:00,SystemResetWarning,0838.4,4.99,000.00,028.9,026.5,000.0,037.4,030.5,24.5,0000.5,0013.64,0006.33,0005.23
2023-08-15 16:49:00,SystemResetWarning,0838.4,5.00,000.00,028.9,026.8,000.0,037.4,030.6,24.3,0000.8,0013.68,0006.35,0005.26
2023-08-15 16:50:00,SystemResetWarning,0838.4,5.00,000.00,029.0,027.1,000.0,037.4,030.7,24.5,0000.9,0014.18,0006.39,0005.26
2023-08-15 16:51:00,SystemResetWarning,0838.4,4.99,000.00,029.0,027.4,000.0,037.4,030.7,24.8,0000.7,0014.67,0006.39,0005.26
2023-08-15 16:52:00,SystemResetWarning,0838.4,4.99,000.00,029.1,027.6,000.0,037.5,030.8,26.0,0000.9,0014.74,0006.35,0005.25
2023-08-15 16:53:00,SystemResetWarning,0838.4,5.00,000.00,029.1,027.8,000.0,037.5,030.9,25.6,0001.1,0015.25,0006.35,0005.26
2023-08-15 16:54:00,SystemResetWarning,0838.4,4.99,000.00,029.1,027.1,000.0,037.4,030.7,25.2,0001.1,0015.19,0006.31,0005.26
2023-08-15 16:55:00,SystemResetWarning,0838.3,5.00,000.00,029.1,025.4,000.0,037.3,030.4,25.0,0001.3,0015.22,0006.34,0005.27
2023-08-15 16:56:00,SystemResetWarning,0838.3,5.01,000.00,029.0,025.1,000.0,037.2,030.3,25.2,0000.8,0015.03,0006.34,0005.27
2023-08-15 16:57:00,SystemResetWarning,0838.3,5.01,000.00,028.9,025.4,000.0,037.2,030.3,25.3,0000.8,0015.69,0006.36,0005.26
2023-08-15 16:58:00,SystemResetWarning,0838.3,5.00,000.00,028.9,025.8,000.0,037.3,030.3,25.2,0001.2,0016.15,0006.38,0005.26
2023-08-15 16:59:00,SystemResetWarning,0838.3,4.99,000.00,028.9,026.2,000.0,037.3,030.4,25.0,0001.2,0015.68,0006.33,0005.27
